Time,TemperatureF,DewpointF,PressureIn,WindDirection,WindDirectionDegrees,WindSpeedMPH,WindSpeedGustMPH,Humidity,HourlyPrecipIn,Conditions,Clouds,dailyrainin,SoftwareType,DateUTC
2013-10-11 00:01:00,45.1,40.3,29.68,ENE,68,0.0,0.0,83,0.00,,---,0.00,VWS V14.01,2013-10-11 04:01:00,
2013-10-11 00:02:00,45.1,40.3,29.68,ENE,68,0.0,0.0,83,0.00,,---,0.00,VWS V14.01,2013-10-11 04:02:00,
2013-10-11 00:03:00,45.1,40.3,29.68,ENE,68,0.0,0.0,83,0.00,,---,0.00,VWS V14.01,2013-10-11 04:03:00,
2013-10-11 00:04:00,45.1,40.3,29.68,ENE,68,0.0,0.0,83,0.00,,---,0.00,VWS V14.01,2013-10-11 04:04:00,
2013-10-11 00:09:00,45.0,40.1,29.68,ENE,68,0.0,0.0,83,0.00,,---,0.00,VWS V14.01,2013-10-11 04:09:00,
2013-10-11 00:12:00,45.0,40.1,29.68,ENE,68,0.0,0.0,83,0.00,,---,0.00,VWS V14.01,2013-10-11 04:12:00,
2013-10-11 00:13:00,45.0,40.1,29.68,ENE,68,0.0,0.0,83,0.00,,---,0.00,VWS V14.01,2013-10-11 04:13:00,
2013-10-11 00:19:00,45.0,40.1,29.68,ENE,68,0.0,0.0,83,0.00,,---,0.00,VWS V14.01,2013-10-11 04:19:00,
2013-10-11 00:24:00,45.0,40.4,29.68,ENE,68,0.0,0.0,84,0.00,,---,0.00,VWS V14.01,2013-10-11 04:24:00,
2013-10-11 00:29:00,44.8,40.2,29.68,ENE,68,0.0,0.0,84,0.00,,---,0.00,VWS V14.01,2013-10-11 04:29:00,
2013-10-11 00:34:00,44.8,40.2,29.68,ENE,68,0.0,0.0,84,0.00,,---,0.00,VWS V14.01,2013-10-11 04:34:00,
2013-10-11 00:40:00,44.8,40.2,29.68,ENE,68,0.0,0.0,84,0.00,,---,0.00,VWS V14.01,2013-10-11 04:40:00,
2013-10-11 00:46:00,44.6,40.1,29.68,ENE,68,0.0,0.0,84,0.00,,---,0.00,VWS V14.01,2013-10-11 04:46:00,
2013-10-11 00:51:00,44.6,40.1,29.68,North,0,0.0,0.0,84,0.00,,---,0.00,VWS V14.01,2013-10-11 04:51:00,
2013-10-11 00:57:00,44.6,40.1,29.68,North,0,0.0,0.0,84,0.00,,---,0.00,VWS V14.01,2013-10-11 04:57:00,
2013-10-11 01:02:00,44.6,40.1,29.68,NNE,22,0.0,0.0,84,0.00,,---,0.00,VWS V14.01,2013-10-11 05:02:00,
2013-10-11 01:07:00,44.8,40.5,29.68,NNW,338,1.6,2.0,85,0.00,,---,0.00,VWS V14.01,2013-10-11 05:07:00,
2013-10-11 01:13:00,45.1,41.2,29.68,SW,225,1.1,1.3,86,0.00,,---,0.00,VWS V14.01,2013-10-11 05:13:00,
2013-10-11 01:18:00,45.1,41.2,29.68,SW,225,2.0,2.0,86,0.00,,---,0.00,VWS V14.01,2013-10-11 05:18:00,
2013-10-11 01:23:00,45.1,40.9,29.68,SSW,202,2.5,2.5,85,0.00,,---,0.00,VWS V14.01,2013-10-11 05:23:00,
2013-10-11 01:28:00,45.0,40.7,29.68,SW,225,1.3,1.6,85,0.00,,---,0.00,VWS V14.01,2013-10-11 05:28:00,
2013-10-11 01:33:00,44.8,40.5,29.68,SW,225,1.3,1.3,85,0.00,,---,0.00,VWS V14.01,2013-10-11 05:33:00,
2013-10-11 01:38:00,44.6,40.1,29.68,SW,225,0.0,0.0,84,0.00,,---,0.00,VWS V14.01,2013-10-11 05:38:00,
2013-10-11 01:43:00,44.2,39.7,29.68,SW,225,0.0,0.0,84,0.00,,---,0.00,VWS V14.01,2013-10-11 05:43:00,
2013-10-11 01:49:00,43.9,39.4,29.68,SW,225,0.0,0.0,84,0.00,,---,0.00,VWS V14.01,2013-10-11 05:49:00,
2013-10-11 01:54:00,43.7,39.5,29.68,SW,225,0.0,0.0,85,0.00,,---,0.00,VWS V14.01,2013-10-11 05:54:00,
2013-10-11 01:59:00,43.5,39.0,29.68,SW,225,0.0,0.0,84,0.00,,---,0.00,VWS V14.01,2013-10-11 05:59:00,
2013-10-11 02:04:00,43.3,38.8,29.68,SW,225,1.3,1.6,84,0.00,,---,0.00,VWS V14.01,2013-10-11 06:04:00,
2013-10-11 02:09:00,43.0,38.5,29.68,SW,225,0.0,0.0,84,0.00,,---,0.00,VWS V14.01,2013-10-11 06:09:00,
2013-10-11 02:14:00,42.8,38.6,29.68,SW,225,0.0,0.0,85,0.00,,---,0.00,VWS V14.01,2013-10-11 06:14:00,
2013-10-11 02:19:00,42.6,38.4,29.68,SW,225,0.0,0.0,85,0.00,,---,0.00,VWS V14.01,2013-10-11 06:19:00,
2013-10-11 02:24:00,42.3,38.1,29.68,SW,225,0.0,0.0,85,0.00,,---,0.00,VWS V14.01,2013-10-11 06:24:00,
2013-10-11 02:29:00,42.1,37.9,29.68,SW,225,0.0,0.0,85,0.00,,---,0.00,VWS V14.01,2013-10-11 06:29:00,
2013-10-11 02:34:00,42.1,37.9,29.68,SW,225,0.0,0.0,85,0.00,,---,0.00,VWS V14.01,2013-10-11 06:34:00,
2013-10-11 02:39:00,41.9,37.7,29.68,SW,225,2.2,2.2,85,0.00,,---,0.00,VWS V14.01,2013-10-11 06:39:00,
2013-10-11 02:44:00,41.9,38.0,29.68,SW,225,2.0,2.0,86,0.00,,---,0.00,VWS V14.01,2013-10-11 06:44:00,
2013-10-11 02:50:00,41.9,38.0,29.68,SW,225,1.1,1.1,86,0.00,,---,0.00,VWS V14.01,2013-10-11 06:50:00,
2013-10-11 02:56:00,41.7,37.8,29.68,SW,225,0.0,0.0,86,0.00,,---,0.00,VWS V14.01,2013-10-11 06:56:00,
2013-10-11 03:01:00,41.5,37.4,29.68,SW,225,2.0,2.0,85,0.00,,---,0.00,VWS V14.01,2013-10-11 07:01:00,
2013-10-11 03:06:00,41.5,37.7,29.65,SW,225,2.0,2.0,86,0.00,,---,0.00,VWS V14.01,2013-10-11 07:06:00,
2013-10-11 03:11:00,41.5,37.7,29.65,SW,225,1.1,1.3,86,0.00,,---,0.00,VWS V14.01,2013-10-11 07:11:00,
2013-10-11 03:16:00,42.3,39.0,29.65,SW,225,0.0,0.0,88,0.00,,---,0.00,VWS V14.01,2013-10-11 07:16:00,
2013-10-11 03:21:00,42.1,38.5,29.65,SW,225,0.0,0.0,87,0.00,,---,0.00,VWS V14.01,2013-10-11 07:21:00,
2013-10-11 03:26:00,41.9,38.3,29.65,SW,225,0.0,0.0,87,0.00,,---,0.00,VWS V14.01,2013-10-11 07:26:00,
2013-10-11 03:32:00,41.7,38.1,29.65,SW,225,2.0,2.0,87,0.00,,---,0.00,VWS V14.01,2013-10-11 07:32:00,
2013-10-11 03:37:00,41.7,38.1,29.65,SW,225,1.3,1.3,87,0.00,,---,0.00,VWS V14.01,2013-10-11 07:37:00,
2013-10-11 03:42:00,41.7,38.1,29.65,SW,225,1.3,1.3,87,0.00,,---,0.00,VWS V14.01,2013-10-11 07:42:00,
2013-10-11 03:47:00,41.7,38.1,29.65,SW,225,0.0,0.0,87,0.00,,---,0.00,VWS V14.01,2013-10-11 07:47:00,
2013-10-11 03:52:00,41.5,38.0,29.68,SW,225,2.0,2.0,87,0.00,,---,0.00,VWS V14.01,2013-10-11 07:52:00,
2013-10-11 03:57:00,41.5,38.0,29.68,SW,225,0.0,0.0,87,0.00,,---,0.00,VWS V14.01,2013-10-11 07:57:00,
2013-10-11 04:02:00,41.5,38.0,29.68,SW,225,0.0,0.0,87,0.00,,---,0.00,VWS V14.01,2013-10-11 08:02:00,
2013-10-11 04:07:00,41.5,38.0,29.68,SW,225,0.0,0.0,87,0.00,,---,0.00,VWS V14.01,2013-10-11 08:07:00,
2013-10-11 04:12:00,41.5,38.0,29.68,SW,225,0.0,0.0,87,0.00,,---,0.00,VWS V14.01,2013-10-11 08:12:00,
2013-10-11 04:17:00,41.5,38.3,29.68,SW,225,0.0,0.0,88,0.00,,---,0.00,VWS V14.01,2013-10-11 08:17:00,
2013-10-11 04:22:00,41.5,38.3,29.68,SW,225,0.0,0.0,88,0.00,,---,0.00,VWS V14.01,2013-10-11 08:22:00,
2013-10-11 04:27:00,41.7,38.4,29.68,SW,225,0.0,0.0,88,0.00,,---,0.00,VWS V14.01,2013-10-11 08:27:00,
2013-10-11 04:32:00,41.7,38.4,29.68,SW,225,0.0,0.0,88,0.00,,---,0.00,VWS V14.01,2013-10-11 08:32:00,
2013-10-11 04:37:00,41.7,38.4,29.68,SW,225,0.0,0.0,88,0.00,,---,0.00,VWS V14.01,2013-10-11 08:37:00,
2013-10-11 04:42:00,41.7,38.4,29.68,SW,225,0.0,0.0,88,0.00,,---,0.00,VWS V14.01,2013-10-11 08:42:00,
2013-10-11 04:47:00,41.7,38.4,29.68,SW,225,0.0,0.0,88,0.00,,---,0.00,VWS V14.01,2013-10-11 08:47:00,
2013-10-11 04:52:00,41.7,38.4,29.68,SW,225,0.0,0.0,88,0.00,,---,0.00,VWS V14.01,2013-10-11 08:52:00,
2013-10-11 04:57:00,41.7,38.4,29.68,SW,225,0.0,0.0,88,0.00,,---,0.00,VWS V14.01,2013-10-11 08:57:00,
2013-10-11 05:02:00,41.7,38.4,29.68,SW,225,0.0,0.0,88,0.00,,---,0.00,VWS V14.01,2013-10-11 09:02:00,
2013-10-11 05:08:00,41.7,38.4,29.68,SW,225,0.0,0.0,88,0.00,,---,0.00,VWS V14.01,2013-10-11 09:08:00,
2013-10-11 05:13:00,41.7,38.4,29.68,SW,225,0.0,0.0,88,0.00,,---,0.00,VWS V14.01,2013-10-11 09:13:00,
2013-10-11 05:18:00,41.7,38.4,29.68,SW,225,0.0,0.0,88,0.00,,---,0.00,VWS V14.01,2013-10-11 09:18:00,
2013-10-11 05:23:00,41.7,38.4,29.68,SW,225,0.0,0.0,88,0.00,,---,0.00,VWS V14.01,2013-10-11 09:23:00,
2013-10-11 05:28:00,41.7,38.4,29.68,SW,225,0.0,0.0,88,0.00,,---,0.00,VWS V14.01,2013-10-11 09:28:00,
2013-10-11 05:33:00,41.7,38.7,29.68,SW,225,0.0,0.0,89,0.00,,---,0.00,VWS V14.01,2013-10-11 09:33:00,
2013-10-11 05:38:00,41.5,38.5,29.68,SW,225,0.0,0.0,89,0.00,,---,0.00,VWS V14.01,2013-10-11 09:38:00,
2013-10-11 05:43:00,41.5,38.5,29.68,SW,225,0.0,0.0,89,0.00,,---,0.00,VWS V14.01,2013-10-11 09:43:00,
2013-10-11 05:48:00,41.5,38.5,29.68,SW,225,0.0,0.0,89,0.00,,---,0.00,VWS V14.01,2013-10-11 09:48:00,
2013-10-11 05:53:00,41.5,38.5,29.68,SW,225,0.0,0.0,89,0.00,,---,0.00,VWS V14.01,2013-10-11 09:53:00,
2013-10-11 05:59:00,41.5,38.5,29.68,SW,225,0.0,0.0,89,0.00,,---,0.00,VWS V14.01,2013-10-11 09:59:00,
2013-10-11 06:04:00,41.5,38.5,29.68,SW,225,0.0,0.0,89,0.00,,---,0.00,VWS V14.01,2013-10-11 10:04:00,
2013-10-11 06:10:00,41.5,38.5,29.68,SW,225,0.0,0.0,89,0.00,,---,0.00,VWS V14.01,2013-10-11 10:10:00,
2013-10-11 06:15:00,41.5,38.5,29.68,SW,225,0.0,0.0,89,0.00,,---,0.00,VWS V14.01,2013-10-11 10:15:00,
2013-10-11 06:21:00,41.5,38.5,29.68,SW,225,0.0,0.0,89,0.00,,---,0.00,VWS V14.01,2013-10-11 10:21:00,
2013-10-11 06:26:00,41.5,38.5,29.68,SW,225,0.0,0.0,89,0.00,,---,0.00,VWS V14.01,2013-10-11 10:26:00,
2013-10-11 06:31:00,41.5,38.5,29.68,SW,225,0.0,0.0,89,0.00,,---,0.00,VWS V14.01,2013-10-11 10:31:00,
2013-10-11 06:36:00,41.4,38.4,29.68,SW,225,0.0,0.0,89,0.00,,---,0.00,VWS V14.01,2013-10-11 10:36:00,
2013-10-11 06:41:00,41.4,38.4,29.68,SW,225,0.0,0.0,89,0.00,,---,0.00,VWS V14.01,2013-10-11 10:41:00,
2013-10-11 06:46:00,41.2,38.2,29.68,SW,225,0.0,0.0,89,0.00,,---,0.00,VWS V14.01,2013-10-11 10:46:00,
2013-10-11 06:51:00,41.0,37.7,29.68,SW,225,0.0,0.0,88,0.00,,---,0.00,VWS V14.01,2013-10-11 10:51:00,
2013-10-11 06:56:00,40.8,37.8,29.68,SW,225,0.0,0.0,89,0.00,,---,0.00,VWS V14.01,2013-10-11 10:56:00,
2013-10-11 07:01:00,40.6,37.7,29.68,SW,225,0.0,0.0,89,0.00,,---,0.00,VWS V14.01,2013-10-11 11:01:00,
2013-10-11 07:06:00,40.6,37.7,29.68,SW,225,0.0,0.0,89,0.00,,---,0.00,VWS V14.01,2013-10-11 11:06:00,
2013-10-11 07:11:00,40.6,37.7,29.68,SW,225,0.0,0.0,89,0.00,,---,0.00,VWS V14.01,2013-10-11 11:11:00,
2013-10-11 07:16:00,40.6,37.9,29.68,SW,225,0.0,0.0,90,0.00,,---,0.00,VWS V14.01,2013-10-11 11:16:00,
2013-10-11 07:21:00,40.6,37.9,29.71,SW,225,0.0,0.0,90,0.00,,---,0.00,VWS V14.01,2013-10-11 11:21:00,
2013-10-11 07:26:00,40.6,37.9,29.71,SW,225,0.0,0.0,90,0.00,,---,0.00,VWS V14.01,2013-10-11 11:26:00,
2013-10-11 07:31:00,40.8,38.1,29.71,SW,225,1.1,1.6,90,0.00,,---,0.00,VWS V14.01,2013-10-11 11:31:00,
2013-10-11 07:36:00,41.0,38.3,29.71,SW,225,0.0,0.0,90,0.00,,---,0.00,VWS V14.01,2013-10-11 11:36:00,
2013-10-11 07:41:00,41.0,38.3,29.71,SW,225,0.0,0.0,90,0.00,,---,0.00,VWS V14.01,2013-10-11 11:41:00,
2013-10-11 07:46:00,41.2,38.5,29.71,SW,225,0.0,0.0,90,0.00,,---,0.00,VWS V14.01,2013-10-11 11:46:00,
2013-10-11 07:51:00,41.5,39.1,29.71,SW,225,0.0,0.0,91,0.00,,---,0.00,VWS V14.01,2013-10-11 11:51:00,
2013-10-11 07:56:00,41.7,39.3,29.71,SW,225,0.0,0.0,91,0.00,,---,0.00,VWS V14.01,2013-10-11 11:56:00,
2013-10-11 08:01:00,42.1,39.7,29.71,SW,225,0.0,0.0,91,0.00,,---,0.00,VWS V14.01,2013-10-11 12:01:00,
2013-10-11 08:06:00,42.3,39.8,29.71,SW,225,0.0,0.0,91,0.00,,---,0.00,VWS V14.01,2013-10-11 12:06:00,
2013-10-11 08:11:00,42.8,40.4,29.71,SW,225,0.0,0.0,91,0.00,,---,0.00,VWS V14.01,2013-10-11 12:11:00,
2013-10-11 08:16:00,43.2,41.0,29.71,SSW,202,0.0,1.3,92,0.00,,---,0.00,VWS V14.01,2013-10-11 12:16:00,
2013-10-11 08:21:00,43.5,41.3,29.71,SSW,202,0.0,0.0,92,0.00,,---,0.00,VWS V14.01,2013-10-11 12:21:00,
2013-10-11 08:27:00,44.1,41.9,29.71,SSW,202,0.0,0.0,92,0.00,,---,0.00,VWS V14.01,2013-10-11 12:27:00,
2013-10-11 08:32:00,44.4,42.2,29.71,SSW,202,0.0,0.0,92,0.00,,---,0.00,VWS V14.01,2013-10-11 12:32:00,
2013-10-11 08:37:00,44.8,42.3,29.71,SSW,202,0.0,0.0,91,0.00,,---,0.00,VWS V14.01,2013-10-11 12:37:00,
2013-10-11 08:42:00,45.1,42.7,29.71,SSW,202,0.0,0.0,91,0.00,,---,0.00,VWS V14.01,2013-10-11 12:42:00,
2013-10-11 08:47:00,45.5,43.0,29.71,SSW,202,0.0,0.0,91,0.00,,---,0.00,VWS V14.01,2013-10-11 12:47:00,
2013-10-11 08:52:00,45.7,43.2,29.71,SSW,202,0.0,0.0,91,0.00,,---,0.00,VWS V14.01,2013-10-11 12:52:00,
2013-10-11 08:57:00,46.0,43.6,29.71,SSW,202,0.0,0.0,91,0.00,,---,0.00,VWS V14.01,2013-10-11 12:57:00,
2013-10-11 09:02:00,46.4,43.9,29.71,SSW,202,0.0,0.0,91,0.00,,---,0.00,VWS V14.01,2013-10-11 13:02:00,
2013-10-11 09:08:00,46.8,44.0,29.71,SSW,202,0.0,0.0,90,0.00,,---,0.00,VWS V14.01,2013-10-11 13:08:00,
2013-10-11 09:13:00,46.9,44.2,29.71,SSW,202,0.0,0.0,90,0.00,,---,0.00,VWS V14.01,2013-10-11 13:13:00,
2013-10-11 09:18:00,47.5,44.7,29.71,SSW,202,0.0,0.0,90,0.00,,---,0.00,VWS V14.01,2013-10-11 13:18:00,
2013-10-11 09:24:00,48.4,45.6,29.71,SSW,202,0.0,0.0,90,0.00,,---,0.00,VWS V14.01,2013-10-11 13:24:00,
2013-10-11 09:29:00,48.9,46.1,29.71,SSW,202,0.0,0.0,90,0.00,,---,0.00,VWS V14.01,2013-10-11 13:29:00,
2013-10-11 09:34:00,49.8,47.0,29.71,SSW,202,0.0,0.0,90,0.00,,---,0.00,VWS V14.01,2013-10-11 13:34:00,
2013-10-11 09:39:00,50.5,47.4,29.71,SSW,202,0.0,0.0,89,0.00,,---,0.00,VWS V14.01,2013-10-11 13:39:00,
2013-10-11 09:44:00,51.1,47.7,29.71,ESE,112,0.0,1.3,88,0.00,,---,0.00,VWS V14.01,2013-10-11 13:44:00,
2013-10-11 09:49:00,51.4,47.7,29.71,ESE,112,0.0,0.0,87,0.00,,---,0.00,VWS V14.01,2013-10-11 13:49:00,
2013-10-11 09:54:00,52.3,48.0,29.68,ESE,112,0.0,0.0,85,0.00,,---,0.00,VWS V14.01,2013-10-11 13:54:00,
2013-10-11 09:59:00,52.9,48.5,29.68,ESE,112,0.0,0.0,85,0.00,,---,0.00,VWS V14.01,2013-10-11 13:59:00,
2013-10-11 10:04:00,53.4,48.7,29.71,ESE,112,0.0,1.1,84,0.00,,---,0.00,VWS V14.01,2013-10-11 14:04:00,
2013-10-11 10:09:00,53.8,48.8,29.71,ESE,112,0.0,0.0,83,0.00,,---,0.00,VWS V14.01,2013-10-11 14:09:00,
2013-10-11 10:15:00,54.3,48.6,29.71,ESE,112,0.0,0.0,81,0.00,,---,0.00,VWS V14.01,2013-10-11 14:15:00,
2013-10-11 10:20:00,54.7,48.3,29.68,ESE,112,0.0,0.0,79,0.00,,---,0.00,VWS V14.01,2013-10-11 14:20:00,
2013-10-11 10:25:00,54.9,48.5,29.68,ESE,112,0.0,0.0,79,0.00,,---,0.00,VWS V14.01,2013-10-11 14:25:00,
2013-10-11 10:30:00,55.2,48.5,29.68,ESE,112,0.0,0.0,78,0.00,,---,0.00,VWS V14.01,2013-10-11 14:30:00,
2013-10-11 10:35:00,55.8,48.7,29.68,ESE,112,0.0,0.0,77,0.00,,---,0.00,VWS V14.01,2013-10-11 14:35:00,
2013-10-11 10:40:00,56.3,48.8,29.68,ENE,68,0.0,0.0,76,0.00,,---,0.00,VWS V14.01,2013-10-11 14:40:00,
2013-10-11 10:45:00,56.7,48.8,29.68,ENE,68,0.0,0.0,75,0.00,,---,0.00,VWS V14.01,2013-10-11 14:45:00,
2013-10-11 10:50:00,57.2,49.0,29.71,ENE,68,1.6,2.0,74,0.00,,---,0.00,VWS V14.01,2013-10-11 14:50:00,
2013-10-11 10:56:00,57.9,49.3,29.71,ESE,112,1.3,2.2,73,0.00,,---,0.00,VWS V14.01,2013-10-11 14:56:00,
2013-10-11 11:01:00,58.3,49.7,29.71,ESE,112,0.0,0.0,73,0.00,,---,0.00,VWS V14.01,2013-10-11 15:01:00,
2013-10-11 11:06:00,58.8,49.8,29.68,ESE,112,0.0,1.1,72,0.00,,---,0.00,VWS V14.01,2013-10-11 15:06:00,
2013-10-11 11:11:00,59.4,50.0,29.68,ENE,68,0.0,1.6,71,0.00,,---,0.00,VWS V14.01,2013-10-11 15:11:00,
2013-10-11 11:16:00,59.9,50.1,29.68,ENE,68,2.7,2.7,70,0.00,,---,0.00,VWS V14.01,2013-10-11 15:16:00,
2013-10-11 11:21:00,60.3,50.5,29.68,ENE,68,0.0,0.0,70,0.00,,---,0.00,VWS V14.01,2013-10-11 15:21:00,
2013-10-11 11:27:00,60.6,50.4,29.68,NE,45,0.0,0.9,69,0.00,,---,0.00,VWS V14.01,2013-10-11 15:27:00,
2013-10-11 11:32:00,61.0,50.8,29.68,ENE,68,0.0,1.3,69,0.00,,---,0.00,VWS V14.01,2013-10-11 15:32:00,
2013-10-11 11:37:00,61.3,50.3,29.68,NW,315,0.0,0.0,67,0.00,,---,0.00,VWS V14.01,2013-10-11 15:37:00,
2013-10-11 11:42:00,61.7,50.2,29.68,West,270,2.0,2.5,66,0.00,,---,0.00,VWS V14.01,2013-10-11 15:42:00,
2013-10-11 11:47:00,61.9,50.0,29.68,NNE,22,0.0,0.0,65,0.00,,---,0.00,VWS V14.01,2013-10-11 15:47:00,
2013-10-11 11:52:00,62.2,49.9,29.68,ENE,68,0.9,1.6,64,0.00,,---,0.00,VWS V14.01,2013-10-11 15:52:00,
2013-10-11 11:57:00,62.6,50.3,29.68,East,90,0.0,0.0,64,0.00,,---,0.00,VWS V14.01,2013-10-11 15:57:00,
2013-10-11 12:02:00,63.0,50.2,29.68,South,180,0.0,1.6,63,0.00,,---,0.00,VWS V14.01,2013-10-11 16:02:00,
2013-10-11 12:07:00,63.1,48.1,29.68,ESE,112,0.0,0.0,58,0.00,,---,0.00,VWS V14.01,2013-10-11 16:07:00,
2013-10-11 12:12:00,63.5,48.0,29.68,East,90,3.4,3.4,57,0.00,,---,0.00,VWS V14.01,2013-10-11 16:12:00,
2013-10-11 12:17:00,63.7,48.2,29.68,WSW,248,0.0,0.9,57,0.00,,---,0.00,VWS V14.01,2013-10-11 16:17:00,
2013-10-11 12:23:00,63.9,47.4,29.68,NE,45,2.0,3.4,55,0.00,,---,0.00,VWS V14.01,2013-10-11 16:23:00,
2013-10-11 12:28:00,64.2,46.8,29.68,NNE,22,2.7,2.7,53,0.00,,---,0.00,VWS V14.01,2013-10-11 16:28:00,
2013-10-11 12:33:00,64.6,46.6,29.68,South,180,1.6,1.6,52,0.00,,---,0.00,VWS V14.01,2013-10-11 16:33:00,
2013-10-11 12:39:00,64.8,46.2,29.68,NE,45,0.9,1.6,51,0.00,,---,0.00,VWS V14.01,2013-10-11 16:39:00,
2013-10-11 12:44:00,64.9,45.9,29.68,East,90,2.5,3.4,50,0.00,,---,0.00,VWS V14.01,2013-10-11 16:44:00,
2013-10-11 12:49:00,65.1,45.5,29.65,ESE,112,1.6,2.5,49,0.00,,---,0.00,VWS V14.01,2013-10-11 16:49:00,
2013-10-11 12:54:00,65.5,45.3,29.65,ENE,68,1.6,2.7,48,0.00,,---,0.00,VWS V14.01,2013-10-11 16:54:00,
2013-10-11 12:59:00,65.8,45.1,29.65,ENE,68,0.9,1.6,47,0.00,,---,0.00,VWS V14.01,2013-10-11 16:59:00,
2013-10-11 13:05:00,66.0,45.8,29.65,ENE,68,1.3,2.7,48,0.00,,---,0.00,VWS V14.01,2013-10-11 17:05:00,
2013-10-11 13:10:00,66.2,44.8,29.65,WNW,292,2.5,2.5,46,0.00,,---,0.00,VWS V14.01,2013-10-11 17:10:00,
2013-10-11 13:15:00,66.4,43.8,29.65,WNW,292,0.0,0.0,44,0.00,,---,0.00,VWS V14.01,2013-10-11 17:15:00,
2013-10-11 13:20:00,66.6,44.0,29.65,ESE,112,0.0,0.0,44,0.00,,---,0.00,VWS V14.01,2013-10-11 17:20:00,
2013-10-11 13:25:00,66.7,44.8,29.65,ENE,68,0.0,0.0,45,0.00,,---,0.00,VWS V14.01,2013-10-11 17:25:00,
2013-10-11 13:31:00,67.1,45.1,29.65,NE,45,1.1,1.3,45,0.00,,---,0.00,VWS V14.01,2013-10-11 17:31:00,
2013-10-11 13:36:00,67.3,45.8,29.62,SE,135,0.0,0.9,46,0.00,,---,0.00,VWS V14.01,2013-10-11 17:36:00,
2013-10-11 13:41:00,67.3,44.7,29.62,East,90,1.6,2.5,44,0.00,,---,0.00,VWS V14.01,2013-10-11 17:41:00,
2013-10-11 13:46:00,67.5,44.8,29.62,North,0,0.0,0.0,44,0.00,,---,0.00,VWS V14.01,2013-10-11 17:46:00,
2013-10-11 13:52:00,67.5,44.8,29.65,SW,225,0.9,0.9,44,0.00,,---,0.00,VWS V14.01,2013-10-11 17:52:00,
2013-10-11 13:57:00,67.6,45.0,29.65,ENE,68,0.0,1.3,44,0.00,,---,0.00,VWS V14.01,2013-10-11 17:57:00,
2013-10-11 14:02:00,67.6,45.6,29.65,NNW,338,1.3,1.3,45,0.00,,---,0.00,VWS V14.01,2013-10-11 18:02:00,
2013-10-11 14:07:00,67.8,45.7,29.62,SSE,158,0.0,0.0,45,0.00,,---,0.00,VWS V14.01,2013-10-11 18:07:00,
2013-10-11 14:12:00,68.0,45.3,29.62,NNW,338,0.0,0.0,44,0.00,,---,0.00,VWS V14.01,2013-10-11 18:12:00,
2013-10-11 14:17:00,68.2,45.5,29.62,SSE,158,0.0,1.6,44,0.00,,---,0.00,VWS V14.01,2013-10-11 18:17:00,
2013-10-11 14:22:00,68.4,45.6,29.65,South,180,0.0,1.3,44,0.00,,---,0.00,VWS V14.01,2013-10-11 18:22:00,
2013-10-11 14:27:00,68.4,45.6,29.65,WSW,248,0.0,0.0,44,0.00,,---,0.00,VWS V14.01,2013-10-11 18:27:00,
2013-10-11 14:32:00,68.4,45.6,29.65,SW,225,0.0,0.0,44,0.00,,---,0.00,VWS V14.01,2013-10-11 18:32:00,
2013-10-11 14:38:00,68.4,45.6,29.65,ENE,68,0.0,0.0,44,0.00,,---,0.00,VWS V14.01,2013-10-11 18:38:00,
2013-10-11 14:43:00,68.4,45.6,29.65,NNE,22,0.0,0.0,44,0.00,,---,0.00,VWS V14.01,2013-10-11 18:43:00,
2013-10-11 14:48:00,68.2,45.5,29.65,WNW,292,2.0,2.5,44,0.00,,---,0.00,VWS V14.01,2013-10-11 18:48:00,
2013-10-11 14:53:00,68.0,45.3,29.62,WNW,292,0.0,0.0,44,0.00,,---,0.00,VWS V14.01,2013-10-11 18:53:00,
2013-10-11 14:58:00,67.8,45.1,29.62,WNW,292,0.0,0.0,44,0.00,,---,0.00,VWS V14.01,2013-10-11 18:58:00,
2013-10-11 15:03:00,67.6,45.0,29.62,WNW,292,0.0,0.0,44,0.00,,---,0.00,VWS V14.01,2013-10-11 19:03:00,
2013-10-11 15:08:00,67.3,45.2,29.65,WNW,292,0.0,0.0,45,0.00,,---,0.00,VWS V14.01,2013-10-11 19:08:00,
2013-10-11 15:13:00,67.1,45.1,29.65,WNW,292,0.0,0.0,45,0.00,,---,0.00,VWS V14.01,2013-10-11 19:13:00,
2013-10-11 15:18:00,66.9,44.9,29.65,WNW,292,0.0,0.0,45,0.00,,---,0.00,VWS V14.01,2013-10-11 19:18:00,
2013-10-11 15:23:00,66.7,46.5,29.62,WNW,292,0.0,0.0,48,0.00,,---,0.00,VWS V14.01,2013-10-11 19:23:00,
2013-10-11 15:28:00,66.4,47.7,29.62,WNW,292,0.0,0.0,51,0.00,,---,0.00,VWS V14.01,2013-10-11 19:28:00,
2013-10-11 15:33:00,66.2,47.6,29.62,WNW,292,0.0,0.0,51,0.00,,---,0.00,VWS V14.01,2013-10-11 19:33:00,
2013-10-11 15:38:00,66.0,47.9,29.62,WNW,292,0.0,0.0,52,0.00,,---,0.00,VWS V14.01,2013-10-11 19:38:00,
2013-10-11 15:43:00,65.7,47.6,29.62,WNW,292,0.0,0.0,52,0.00,,---,0.00,VWS V14.01,2013-10-11 19:43:00,
2013-10-11 15:48:00,65.8,47.7,29.62,WNW,292,0.0,0.0,52,0.00,,---,0.00,VWS V14.01,2013-10-11 19:48:00,
2013-10-11 15:53:00,66.2,46.5,29.62,WNW,292,0.0,0.0,49,0.00,,---,0.00,VWS V14.01,2013-10-11 19:53:00,
2013-10-11 15:58:00,66.7,46.5,29.62,North,0,1.1,1.1,48,0.00,,---,0.00,VWS V14.01,2013-10-11 19:58:00,
2013-10-11 16:03:00,67.1,46.2,29.62,North,0,0.0,0.0,47,0.00,,---,0.00,VWS V14.01,2013-10-11 20:03:00,
2013-10-11 16:08:00,67.5,46.5,29.65,North,0,0.0,0.0,47,0.00,,---,0.00,VWS V14.01,2013-10-11 20:08:00,
2013-10-11 16:13:00,67.6,46.7,29.65,NE,45,0.0,0.0,47,0.00,,---,0.00,VWS V14.01,2013-10-11 20:13:00,
2013-10-11 16:18:00,67.6,46.1,29.65,ENE,68,0.0,1.1,46,0.00,,---,0.00,VWS V14.01,2013-10-11 20:18:00,
2013-10-11 16:23:00,67.6,45.6,29.62,ENE,68,0.0,2.0,45,0.00,,---,0.00,VWS V14.01,2013-10-11 20:23:00,
2013-10-11 16:29:00,67.6,45.0,29.62,ENE,68,0.0,0.0,44,0.00,,---,0.00,VWS V14.01,2013-10-11 20:29:00,
2013-10-11 16:35:00,67.1,44.5,29.65,ENE,68,0.0,0.0,44,0.00,,---,0.00,VWS V14.01,2013-10-11 20:35:00,
2013-10-11 16:40:00,66.9,44.3,29.65,ENE,68,0.0,0.0,44,0.00,,---,0.00,VWS V14.01,2013-10-11 20:40:00,
2013-10-11 16:46:00,66.4,44.4,29.65,ENE,68,0.0,0.0,45,0.00,,---,0.00,VWS V14.01,2013-10-11 20:46:00,
2013-10-11 16:51:00,65.8,43.9,29.62,ENE,68,0.0,0.0,45,0.00,,---,0.00,VWS V14.01,2013-10-11 20:51:00,
2013-10-11 16:57:00,65.8,43.9,29.62,ENE,68,0.0,0.0,45,0.00,,---,0.00,VWS V14.01,2013-10-11 20:57:00,
2013-10-11 17:02:00,65.8,43.9,29.62,ENE,68,0.0,0.0,45,0.00,,---,0.00,VWS V14.01,2013-10-11 21:02:00,
2013-10-11 17:07:00,65.8,43.9,29.65,ENE,68,0.0,0.0,45,0.00,,---,0.00,VWS V14.01,2013-10-11 21:07:00,
2013-10-11 17:12:00,64.0,45.0,29.65,ENE,68,0.0,0.0,50,0.00,,---,0.00,VWS V14.01,2013-10-11 21:12:00,
2013-10-11 17:17:00,63.5,45.6,29.65,ENE,68,0.0,0.0,52,0.00,,---,0.00,VWS V14.01,2013-10-11 21:17:00,
2013-10-11 17:22:00,63.0,45.6,29.62,NW,315,0.0,0.0,53,0.00,,---,0.00,VWS V14.01,2013-10-11 21:22:00,
2013-10-11 17:28:00,62.4,46.1,29.62,NW,315,0.0,0.0,55,0.00,,---,0.00,VWS V14.01,2013-10-11 21:28:00,
2013-10-11 17:33:00,61.9,46.0,29.62,NW,315,1.3,1.3,56,0.00,,---,0.00,VWS V14.01,2013-10-11 21:33:00,
2013-10-11 17:38:00,61.3,45.5,29.62,WNW,292,1.1,1.6,56,0.00,,---,0.00,VWS V14.01,2013-10-11 21:38:00,
2013-10-11 17:43:00,61.0,45.7,29.62,WNW,292,0.0,0.0,57,0.00,,---,0.00,VWS V14.01,2013-10-11 21:43:00,
2013-10-11 17:48:00,60.6,45.8,29.62,WNW,292,0.0,0.0,58,0.00,,---,0.00,VWS V14.01,2013-10-11 21:48:00,
2013-10-11 17:53:00,60.1,45.7,29.65,WNW,292,0.0,0.0,59,0.00,,---,0.00,VWS V14.01,2013-10-11 21:53:00,
2013-10-11 17:58:00,59.5,45.7,29.65,WNW,292,0.0,0.0,60,0.00,,---,0.00,VWS V14.01,2013-10-11 21:58:00,
2013-10-11 18:03:00,59.0,46.0,29.65,WNW,292,0.0,0.0,62,0.00,,---,0.00,VWS V14.01,2013-10-11 22:03:00,
2013-10-11 18:09:00,58.5,45.9,29.65,WNW,292,0.0,0.0,63,0.00,,---,0.00,VWS V14.01,2013-10-11 22:09:00,
2013-10-11 18:14:00,57.9,45.8,29.65,SW,225,1.3,1.6,64,0.00,,---,0.00,VWS V14.01,2013-10-11 22:14:00,
2013-10-11 18:19:00,57.6,45.9,29.65,SW,225,1.1,1.3,65,0.00,,---,0.00,VWS V14.01,2013-10-11 22:19:00,
2013-10-11 18:25:00,57.0,45.8,29.65,SW,225,1.6,1.6,66,0.00,,---,0.00,VWS V14.01,2013-10-11 22:25:00,
2013-10-11 18:30:00,56.5,45.3,29.65,SW,225,1.3,1.3,66,0.00,,---,0.00,VWS V14.01,2013-10-11 22:30:00,
2013-10-11 18:35:00,56.1,45.3,29.65,SW,225,1.3,1.3,67,0.00,,---,0.00,VWS V14.01,2013-10-11 22:35:00,
2013-10-11 18:40:00,55.8,45.0,29.65,SW,225,1.6,1.6,67,0.00,,---,0.00,VWS V14.01,2013-10-11 22:40:00,
2013-10-11 18:45:00,55.4,45.0,29.65,SW,225,1.1,1.3,68,0.00,,---,0.00,VWS V14.01,2013-10-11 22:45:00,
2013-10-11 18:50:00,55.0,45.1,29.65,SW,225,1.6,1.6,69,0.00,,---,0.00,VWS V14.01,2013-10-11 22:50:00,
2013-10-11 18:55:00,54.5,44.9,29.65,SW,225,1.6,1.6,70,0.00,,---,0.00,VWS V14.01,2013-10-11 22:55:00,
2013-10-11 19:00:00,54.3,44.8,29.65,SW,225,1.1,1.1,70,0.00,,---,0.00,VWS V14.01,2013-10-11 23:00:00,
2013-10-11 19:05:00,54.0,44.8,29.65,SW,225,0.0,0.0,71,0.00,,---,0.00,VWS V14.01,2013-10-11 23:05:00,
2013-10-11 19:10:00,53.8,44.6,29.65,SW,225,0.0,0.0,71,0.00,,---,0.00,VWS V14.01,2013-10-11 23:10:00,
2013-10-11 19:15:00,53.4,44.6,29.65,SW,225,0.0,0.0,72,0.00,,---,0.00,VWS V14.01,2013-10-11 23:15:00,
2013-10-11 19:21:00,53.2,44.5,29.65,SW,225,0.0,0.0,72,0.00,,---,0.00,VWS V14.01,2013-10-11 23:21:00,
2013-10-11 19:26:00,52.9,44.1,29.65,SW,225,0.0,0.0,72,0.00,,---,0.00,VWS V14.01,2013-10-11 23:26:00,
2013-10-11 19:31:00,52.5,44.1,29.65,SW,225,0.0,0.0,73,0.00,,---,0.00,VWS V14.01,2013-10-11 23:31:00,
2013-10-11 19:36:00,52.3,44.0,29.65,SW,225,0.0,0.0,73,0.00,,---,0.00,VWS V14.01,2013-10-11 23:36:00,
2013-10-11 19:41:00,52.2,43.8,29.65,SW,225,1.6,1.6,73,0.00,,---,0.00,VWS V14.01,2013-10-11 23:41:00,
2013-10-11 19:46:00,52.0,44.7,29.65,WSW,248,1.6,2.9,76,0.00,,---,0.00,VWS V14.01,2013-10-11 23:46:00,
2013-10-11 19:51:00,52.2,44.5,29.65,SW,225,2.2,2.5,75,0.00,,---,0.00,VWS V14.01,2013-10-11 23:51:00,
2013-10-11 19:56:00,52.0,44.0,29.65,SW,225,2.5,2.5,74,0.00,,---,0.00,VWS V14.01,2013-10-11 23:56:00,
2013-10-11 20:01:00,51.6,44.0,29.65,SW,225,2.5,2.5,75,0.00,,---,0.00,VWS V14.01,2013-10-12 00:01:00,
2013-10-11 20:06:00,51.3,43.3,29.68,SW,225,1.3,1.6,74,0.00,,---,0.00,VWS V14.01,2013-10-12 00:06:00,
2013-10-11 20:11:00,50.9,42.9,29.68,SW,225,0.0,0.0,74,0.00,,---,0.00,VWS V14.01,2013-10-12 00:11:00,
2013-10-11 20:17:00,50.5,42.9,29.68,SW,225,0.0,0.0,75,0.00,,---,0.00,VWS V14.01,2013-10-12 00:17:00,
2013-10-11 20:23:00,50.2,42.6,29.65,SW,225,0.0,0.0,75,0.00,,---,0.00,VWS V14.01,2013-10-12 00:23:00,
2013-10-11 20:28:00,50.2,42.9,29.65,WSW,248,2.0,2.0,76,0.00,,---,0.00,VWS V14.01,2013-10-12 00:28:00,
2013-10-11 20:33:00,50.2,42.6,29.65,SSW,202,1.6,2.2,75,0.00,,---,0.00,VWS V14.01,2013-10-12 00:33:00,
2013-10-11 20:38:00,50.2,42.9,29.68,SSW,202,2.7,3.1,76,0.00,,---,0.00,VWS V14.01,2013-10-12 00:38:00,
2013-10-11 20:43:00,50.4,43.8,29.68,SW,225,2.2,3.1,78,0.00,,---,0.00,VWS V14.01,2013-10-12 00:43:00,
2013-10-11 20:48:00,50.5,43.6,29.68,SSW,202,2.5,2.9,77,0.00,,---,0.00,VWS V14.01,2013-10-12 00:48:00,
2013-10-11 20:53:00,50.2,42.9,29.68,SSW,202,1.6,2.0,76,0.00,,---,0.00,VWS V14.01,2013-10-12 00:53:00,
2013-10-11 20:58:00,50.0,42.7,29.68,SSW,202,2.0,2.0,76,0.00,,---,0.00,VWS V14.01,2013-10-12 00:58:00,
2013-10-11 21:03:00,49.5,42.2,29.68,SSW,202,1.6,1.6,76,0.00,,---,0.00,VWS V14.01,2013-10-12 01:03:00,
2013-10-11 21:08:00,49.1,41.9,29.68,SW,225,2.2,2.2,76,0.00,,---,0.00,VWS V14.01,2013-10-12 01:08:00,
2013-10-11 21:13:00,48.9,41.7,29.68,SW,225,0.0,1.6,76,0.00,,---,0.00,VWS V14.01,2013-10-12 01:13:00,
2013-10-11 21:19:00,48.7,41.9,29.68,SW,225,2.0,2.0,77,0.00,,---,0.00,VWS V14.01,2013-10-12 01:19:00,
2013-10-11 21:24:00,48.6,41.7,29.68,SSW,202,1.3,2.0,77,0.00,,---,0.00,VWS V14.01,2013-10-12 01:24:00,
2013-10-11 21:29:00,48.4,41.5,29.68,NW,315,1.6,2.5,77,0.00,,---,0.00,VWS V14.01,2013-10-12 01:29:00,
2013-10-11 21:34:00,48.4,41.8,29.68,WSW,248,1.3,2.2,78,0.00,,---,0.00,VWS V14.01,2013-10-12 01:34:00,
2013-10-11 21:39:00,48.4,41.8,29.68,WSW,248,0.0,1.6,78,0.00,,---,0.00,VWS V14.01,2013-10-12 01:39:00,
2013-10-11 21:44:00,48.2,41.7,29.68,WSW,248,1.6,2.2,78,0.00,,---,0.00,VWS V14.01,2013-10-12 01:44:00,
2013-10-11 21:49:00,48.0,41.5,29.68,WSW,248,2.2,2.2,78,0.00,,---,0.00,VWS V14.01,2013-10-12 01:49:00,
2013-10-11 21:54:00,48.0,41.8,29.68,SW,225,2.0,2.2,79,0.00,,---,0.00,VWS V14.01,2013-10-12 01:54:00,
2013-10-11 21:59:00,47.7,41.5,29.68,SW,225,0.0,0.0,79,0.00,,---,0.00,VWS V14.01,2013-10-12 01:59:00,
2013-10-11 22:04:00,47.5,41.3,29.68,SW,225,0.0,0.0,79,0.00,,---,0.00,VWS V14.01,2013-10-12 02:04:00,
2013-10-11 22:09:00,47.3,41.1,29.68,SW,225,1.3,1.3,79,0.00,,---,0.00,VWS V14.01,2013-10-12 02:09:00,
2013-10-11 22:15:00,47.3,41.5,29.68,SW,225,0.9,2.0,80,0.00,,---,0.00,VWS V14.01,2013-10-12 02:15:00,
2013-10-11 22:20:00,47.1,41.3,29.68,SW,225,1.6,2.0,80,0.00,,---,0.00,VWS V14.01,2013-10-12 02:20:00,
2013-10-11 22:25:00,46.9,41.1,29.68,SW,225,1.1,1.6,80,0.00,,---,0.00,VWS V14.01,2013-10-12 02:25:00,
2013-10-11 22:30:00,46.8,40.9,29.68,SW,225,2.0,2.0,80,0.00,,---,0.00,VWS V14.01,2013-10-12 02:30:00,
2013-10-11 22:35:00,46.6,40.8,29.68,SW,225,2.0,2.2,80,0.00,,---,0.00,VWS V14.01,2013-10-12 02:35:00,
2013-10-11 22:41:00,46.6,40.8,29.68,SW,225,2.0,2.2,80,0.00,,---,0.00,VWS V14.01,2013-10-12 02:41:00,
2013-10-11 22:46:00,46.2,40.7,29.68,SW,225,1.3,1.6,81,0.00,,---,0.00,VWS V14.01,2013-10-12 02:46:00,
2013-10-11 22:51:00,46.2,40.7,29.68,SW,225,2.0,2.0,81,0.00,,---,0.00,VWS V14.01,2013-10-12 02:51:00,
2013-10-11 22:56:00,46.0,40.5,29.68,SW,225,1.3,1.6,81,0.00,,---,0.00,VWS V14.01,2013-10-12 02:56:00,
2013-10-11 23:01:00,45.9,40.4,29.68,SW,225,1.3,1.3,81,0.00,,---,0.00,VWS V14.01,2013-10-12 03:01:00,
2013-10-11 23:06:00,45.7,40.2,29.68,SW,225,1.6,2.0,81,0.00,,---,0.00,VWS V14.01,2013-10-12 03:06:00,
2013-10-11 23:11:00,45.5,40.0,29.68,SW,225,0.0,0.0,81,0.00,,---,0.00,VWS V14.01,2013-10-12 03:11:00,
2013-10-11 23:16:00,45.3,39.8,29.68,SW,225,0.0,0.9,81,0.00,,---,0.00,VWS V14.01,2013-10-12 03:16:00,
2013-10-11 23:21:00,45.3,40.2,29.68,SW,225,0.0,0.0,82,0.00,,---,0.00,VWS V14.01,2013-10-12 03:21:00,
2013-10-11 23:26:00,45.1,39.7,29.68,SW,225,0.0,0.0,81,0.00,,---,0.00,VWS V14.01,2013-10-12 03:26:00,
2013-10-11 23:31:00,45.0,39.8,29.68,SW,225,0.0,0.0,82,0.00,,---,0.00,VWS V14.01,2013-10-12 03:31:00,
2013-10-11 23:36:00,44.8,39.6,29.68,SW,225,0.0,0.0,82,0.00,,---,0.00,VWS V14.01,2013-10-12 03:36:00,
2013-10-11 23:41:00,44.8,39.6,29.68,SW,225,0.0,0.0,82,0.00,,---,0.00,VWS V14.01,2013-10-12 03:41:00,
2013-10-11 23:46:00,44.6,39.5,29.68,SW,225,1.1,1.6,82,0.00,,---,0.00,VWS V14.01,2013-10-12 03:46:00,
2013-10-11 23:51:00,44.4,39.6,29.68,SW,225,1.1,1.1,83,0.00,,---,0.00,VWS V14.01,2013-10-12 03:51:00,
2013-10-11 23:56:00,44.2,39.4,29.68,SW,225,1.1,1.1,83,0.00,,---,0.00,VWS V14.01,2013-10-12 03:56:00,